sat.trackr.live / text

‹ back to catalog

STARLINK-30265

NORAD 57646 · 2023-122Q

PAYLOAD ACTIVE UNKNOWN

§ Identity

Operator
Country
US
Launch date
2023-08-17
Launch site
AFETR
Launch vehicle
Mass (kg)
RCS (m²)

Purposes: comms

External: N2YO · Heavens-Above · Gunter

§ Orbital elements

Epoch: 2026-05-25T00:16:49.258272Z

Period
94.27 min
Inclination
43.0035°
Eccentricity
0.0001260
Mean motion
15.27576527 rev/d
Perigee alt
482.2 km
Apogee alt
483.9 km
Semi-major
6,861.2 km
B*
-7.8163e-5
RAAN
21.1147°
Arg perigee
271.1308°
Mean anomaly
88.9400°
Rev number
15,388

§ Raw data

STARLINK-302651 57646U 23122Q   26145.01168123 -.00002412  00000+0 -78163-4 0  99972 57646  43.0035  21.1147 0001260 271.1308  88.9400 15.27576527153883

JSON: /api/v1/satellites/57646 · /tle

For live sub-satellite position, see the globe view (requires WebGL).

§ Visibility from observer

Set your observer location to see the next 7 days of passes ≥ 10°. The values pass through the URL so the page stays shareable.

No JS? Fill the form by hand. The geolocation button needs JavaScript.